N179LJ MMMX-MZBZ

Flight info

Callsign N179LJ
Flight time N/A
Altitude 35000
Route ILETO3A ILETO UT109 VER UJ28 DUTKA DCT DASMO DASMO1A
Aircraft B744/H-SDE3FGHIM1M2RWXY/LB1

Departure

Time N/A
Airport Mexico City Benito Juárez International Airport (MMMX)

Arrival

Time 2026-05-06 19:07
Airport Philip S. W. Goldson International Airport (MZBZ)
Time Latitude Longitude Altitude Speed Heading
2026-05-06 17:38 19.48997 -98.53153 17738 ft 347 kts 115°
2026-05-06 17:39 19.47974 -98.50841 18060 ft 348 kts 115°
2026-05-06 17:39 19.46957 -98.48530 18324 ft 350 kts 115°
2026-05-06 17:39 19.45917 -98.46170 18607 ft 352 kts 115°
2026-05-06 17:39 19.44885 -98.43832 18912 ft 353 kts 115°
2026-05-06 17:40 19.43836 -98.41456 19189 ft 355 kts 115°
2026-05-06 17:40 19.42792 -98.39082 19467 ft 357 kts 115°
2026-05-06 17:40 19.41744 -98.36690 19776 ft 358 kts 115°
2026-05-06 17:40 19.40684 -98.34304 20044 ft 360 kts 116°
2026-05-06 17:41 19.39612 -98.31887 20298 ft 363 kts 116°
2026-05-06 17:41 19.38544 -98.29470 20584 ft 365 kts 116°
2026-05-06 17:41 19.37457 -98.27020 20888 ft 366 kts 116°
2026-05-06 17:41 19.36376 -98.24583 21160 ft 368 kts 116°
2026-05-06 17:42 19.35293 -98.22134 21442 ft 370 kts 116°
2026-05-06 17:42 19.34198 -98.19660 21726 ft 371 kts 116°
2026-05-06 17:42 19.33086 -98.17151 22018 ft 373 kts 116°
2026-05-06 17:42 19.31983 -98.14674 22308 ft 375 kts 116°
2026-05-06 17:43 19.30876 -98.12182 22603 ft 376 kts 116°
2026-05-06 17:43 19.29760 -98.09666 22890 ft 377 kts 116°
2026-05-06 17:43 19.28641 -98.07142 23173 ft 379 kts 116°
2026-05-06 17:43 19.27514 -98.04596 23455 ft 380 kts 116°
2026-05-06 17:44 19.26522 -98.02017 23682 ft 384 kts 106°
2026-05-06 17:44 19.26119 -97.99204 23914 ft 388 kts 94°
2026-05-06 17:44 19.26020 -97.96367 24176 ft 389 kts 94°
2026-05-06 17:44 19.25853 -97.93475 24422 ft 391 kts 95°
2026-05-06 17:45 19.25682 -97.90608 24650 ft 394 kts 95°
2026-05-06 17:45 19.25506 -97.87685 24882 ft 397 kts 96°
2026-05-06 17:45 19.25327 -97.84763 25122 ft 399 kts 96°
2026-05-06 17:45 19.25145 -97.81824 25364 ft 401 kts 96°
2026-05-06 17:46 19.24964 -97.78876 25610 ft 402 kts 96°
2026-05-06 17:46 19.24780 -97.75929 25853 ft 404 kts 96°
2026-05-06 17:46 19.24593 -97.72956 26095 ft 405 kts 96°
2026-05-06 17:46 19.24408 -97.69971 26341 ft 407 kts 96°
2026-05-06 17:47 19.24218 -97.66946 26588 ft 409 kts 96°
2026-05-06 17:47 19.24030 -97.63960 26818 ft 411 kts 96°
2026-05-06 17:47 19.23841 -97.60922 27024 ft 413 kts 96°
2026-05-06 17:47 19.23647 -97.57893 27227 ft 415 kts 96°
2026-05-06 17:48 19.23451 -97.54806 27445 ft 417 kts 96°
2026-05-06 17:48 19.23256 -97.51741 27659 ft 419 kts 96°
2026-05-06 17:48 19.23058 -97.48651 27886 ft 421 kts 96°
2026-05-06 17:48 19.22862 -97.45569 28125 ft 423 kts 96°
2026-05-06 17:49 19.22664 -97.42457 28364 ft 424 kts 96°
2026-05-06 17:49 19.22461 -97.39355 28608 ft 425 kts 96°
2026-05-06 17:49 19.22259 -97.36213 28863 ft 426 kts 96°
2026-05-06 17:49 19.22056 -97.33082 29124 ft 427 kts 96°
2026-05-06 17:50 19.21851 -97.29939 29386 ft 428 kts 96°
2026-05-06 17:50 19.21644 -97.26807 29645 ft 429 kts 96°
2026-05-06 17:50 19.21441 -97.23686 29889 ft 431 kts 96°
2026-05-06 17:50 19.21228 -97.20493 30107 ft 433 kts 95°
2026-05-06 17:51 19.21017 -97.17307 30298 ft 437 kts 95°
2026-05-06 17:51 19.20805 -97.14100 30484 ft 440 kts 95°
2026-05-06 17:51 19.20594 -97.10876 30681 ft 442 kts 95°
2026-05-06 17:51 19.20380 -97.07600 30887 ft 444 kts 95°
2026-05-06 17:52 19.20163 -97.04324 31112 ft 446 kts 95°
2026-05-06 17:52 19.19946 -97.01074 31351 ft 448 kts 95°
2026-05-06 17:52 19.19729 -96.97770 31579 ft 450 kts 94°
2026-05-06 17:52 19.19506 -96.94472 31819 ft 451 kts 94°
2026-05-06 17:53 19.19285 -96.91160 32057 ft 452 kts 94°
2026-05-06 17:53 19.19064 -96.87825 32282 ft 455 kts 94°
2026-05-06 17:53 19.18839 -96.84454 32511 ft 457 kts 94°
2026-05-06 17:53 19.18620 -96.81125 32745 ft 458 kts 94°
2026-05-06 17:54 19.18394 -96.77754 32995 ft 460 kts 94°
2026-05-06 17:54 19.18173 -96.74414 33249 ft 461 kts 94°
2026-05-06 17:54 19.17942 -96.71037 33495 ft 462 kts 94°
2026-05-06 17:54 19.17705 -96.67606 33711 ft 465 kts 94°
2026-05-06 17:55 19.17470 -96.64196 33905 ft 468 kts 94°
2026-05-06 17:55 19.17231 -96.60736 34112 ft 471 kts 94°
2026-05-06 17:55 19.16998 -96.57281 34343 ft 473 kts 94°
2026-05-06 17:55 19.16765 -96.53827 34591 ft 477 kts 94°
2026-05-06 17:56 19.16521 -96.50286 34813 ft 482 kts 94°
2026-05-06 17:56 19.16278 -96.46780 34909 ft 487 kts 95°
2026-05-06 17:56 19.15779 -96.39610 34884 ft 486 kts 95°
2026-05-06 17:57 19.15282 -96.32514 34839 ft 484 kts 95°
2026-05-06 17:57 19.14780 -96.25429 34830 ft 484 kts 95°
2026-05-06 17:58 19.14274 -96.18330 34822 ft 484 kts 96°
2026-05-06 17:58 19.13556 -96.11285 34816 ft 483 kts 96°
2026-05-06 17:59 19.12850 -96.04208 34809 ft 483 kts 97°
2026-05-06 17:59 19.12146 -95.97169 34801 ft 483 kts 97°
2026-05-06 18:00 19.11434 -95.90080 34802 ft 485 kts 97°
2026-05-06 18:00 19.10716 -95.82993 34797 ft 486 kts 97°
2026-05-06 18:01 19.10004 -95.75935 34787 ft 485 kts 97°
2026-05-06 18:01 19.09278 -95.68862 34784 ft 484 kts 97°
2026-05-06 18:02 19.08559 -95.61823 34779 ft 483 kts 96°
2026-05-06 18:02 19.07839 -95.54728 34784 ft 482 kts 97°
2026-05-06 18:03 19.07120 -95.47728 34797 ft 483 kts 97°
2026-05-06 18:03 19.06388 -95.40667 34802 ft 483 kts 97°
2026-05-06 18:04 19.05652 -95.33583 34803 ft 483 kts 97°
2026-05-06 18:04 19.04924 -95.26573 34810 ft 483 kts 97°
2026-05-06 18:05 19.04183 -95.19487 34812 ft 483 kts 97°
2026-05-06 18:05 19.03451 -95.12435 34819 ft 483 kts 97°
2026-05-06 18:06 19.02707 -95.05399 34818 ft 484 kts 97°
2026-05-06 18:06 19.01955 -94.98317 34816 ft 484 kts 97°
2026-05-06 18:07 19.01207 -94.91281 34810 ft 484 kts 97°
2026-05-06 18:07 19.00452 -94.84230 34812 ft 484 kts 97°
2026-05-06 18:08 18.99700 -94.77201 34810 ft 483 kts 97°
2026-05-06 18:08 18.98945 -94.70155 34810 ft 483 kts 97°
2026-05-06 18:09 18.98190 -94.63100 34816 ft 484 kts 97°
2026-05-06 18:09 18.97428 -94.56044 34816 ft 485 kts 97°
2026-05-06 18:10 18.96662 -94.48990 34819 ft 484 kts 97°
2026-05-06 18:10 18.95888 -94.41907 34823 ft 483 kts 97°
2026-05-06 18:11 18.95244 -94.36021 34833 ft 483 kts 97°
2026-05-06 18:11 18.94349 -94.27831 34831 ft 482 kts 97°
2026-05-06 18:12 18.93705 -94.21995 34835 ft 482 kts 97°
2026-05-06 18:12 18.92932 -94.14978 34838 ft 482 kts 97°
2026-05-06 18:13 18.92152 -94.07946 34842 ft 482 kts 97°
2026-05-06 18:13 18.91374 -94.00931 34843 ft 483 kts 97°
2026-05-06 18:14 18.90591 -93.93904 34839 ft 482 kts 97°
2026-05-06 18:14 18.89803 -93.86853 34837 ft 482 kts 97°
2026-05-06 18:15 18.89010 -93.79831 34836 ft 482 kts 97°
2026-05-06 18:15 18.88224 -93.72842 34836 ft 483 kts 97°
2026-05-06 18:16 18.87427 -93.65785 34834 ft 484 kts 97°
2026-05-06 18:16 18.86625 -93.58733 34838 ft 484 kts 97°
2026-05-06 18:17 18.85829 -93.51693 34843 ft 484 kts 97°
2026-05-06 18:17 18.85016 -93.44609 34836 ft 483 kts 97°
2026-05-06 18:18 18.84207 -93.37550 34935 ft 487 kts 97°
2026-05-06 18:18 18.83802 -93.33981 35125 ft 488 kts 97°
2026-05-06 18:18 18.83410 -93.30444 35328 ft 489 kts 97°
2026-05-06 18:19 18.83013 -93.26839 35553 ft 490 kts 97°
2026-05-06 18:19 18.82615 -93.23297 35796 ft 490 kts 97°
2026-05-06 18:19 18.82216 -93.19701 36044 ft 491 kts 97°
2026-05-06 18:19 18.81811 -93.16108 36271 ft 491 kts 97°
2026-05-06 18:20 18.81415 -93.12546 36481 ft 492 kts 97°
2026-05-06 18:20 18.81009 -93.08922 36687 ft 491 kts 97°
2026-05-06 18:20 18.80609 -93.05338 36797 ft 491 kts 97°
2026-05-06 18:20 18.80213 -93.01803 36838 ft 491 kts 97°
2026-05-06 18:21 18.79405 -92.94637 36840 ft 490 kts 97°
2026-05-06 18:21 18.78599 -92.87497 36830 ft 487 kts 97°
2026-05-06 18:22 18.77793 -92.80398 36837 ft 487 kts 97°
2026-05-06 18:22 18.76988 -92.73311 36840 ft 487 kts 97°
2026-05-06 18:23 18.76184 -92.66191 36840 ft 487 kts 97°
2026-05-06 18:23 18.75361 -92.59054 36843 ft 488 kts 97°
2026-05-06 18:24 18.74545 -92.51933 36838 ft 487 kts 97°
2026-05-06 18:24 18.73724 -92.44824 36840 ft 486 kts 97°
2026-05-06 18:25 18.72907 -92.37742 36844 ft 486 kts 97°
2026-05-06 18:25 18.72084 -92.30661 36845 ft 486 kts 98°
2026-05-06 18:26 18.71262 -92.23561 36848 ft 486 kts 98°
2026-05-06 18:26 18.70405 -92.16500 36846 ft 486 kts 98°
2026-05-06 18:27 18.69558 -92.09429 36845 ft 486 kts 98°
2026-05-06 18:27 18.68700 -92.02368 36849 ft 485 kts 98°
2026-05-06 18:28 18.67840 -91.95300 36858 ft 485 kts 98°
2026-05-06 18:28 18.66978 -91.88213 36862 ft 485 kts 98°
2026-05-06 18:29 18.66114 -91.81168 36858 ft 485 kts 97°
2026-05-06 18:29 18.65828 -91.74062 36856 ft 485 kts 93°
2026-05-06 18:30 18.65567 -91.66914 36861 ft 486 kts 92°
2026-05-06 18:30 18.65311 -91.59793 36854 ft 487 kts 92°
2026-05-06 18:31 18.65054 -91.52616 36844 ft 487 kts 92°
2026-05-06 18:31 18.64796 -91.45501 36836 ft 487 kts 92°
2026-05-06 18:32 18.64536 -91.38351 36829 ft 487 kts 93°
2026-05-06 18:32 18.63297 -91.31344 36830 ft 484 kts 106°
2026-05-06 18:33 18.61669 -91.24484 36836 ft 485 kts 104°
2026-05-06 18:33 18.60038 -91.17538 36837 ft 486 kts 104°
2026-05-06 18:34 18.58428 -91.10636 36841 ft 486 kts 104°
2026-05-06 18:34 18.56806 -91.03724 36837 ft 486 kts 104°
2026-05-06 18:35 18.55180 -90.96769 36844 ft 486 kts 104°
2026-05-06 18:35 18.53551 -90.89844 36852 ft 486 kts 104°
2026-05-06 18:36 18.51927 -90.82940 36860 ft 486 kts 104°
2026-05-06 18:36 18.50303 -90.76013 36869 ft 486 kts 104°
2026-05-06 18:37 18.48941 -90.70242 36868 ft 486 kts 104°
2026-05-06 18:37 18.47047 -90.62219 36871 ft 486 kts 104°
2026-05-06 18:38 18.45401 -90.55283 36872 ft 486 kts 104°
2026-05-06 18:38 18.43759 -90.48356 36875 ft 486 kts 104°
2026-05-06 18:39 18.42124 -90.41472 36885 ft 486 kts 104°
2026-05-06 18:40 18.39660 -90.31112 36876 ft 486 kts 104°
2026-05-06 18:40 18.38007 -90.24190 36880 ft 487 kts 104°
2026-05-06 18:41 18.36353 -90.17265 36891 ft 487 kts 104°
2026-05-06 18:41 18.34696 -90.10346 36901 ft 487 kts 104°
2026-05-06 18:42 18.33044 -90.03458 36916 ft 486 kts 104°
2026-05-06 18:42 18.32209 -89.99981 36735 ft 484 kts 104°
2026-05-06 18:42 18.31390 -89.96558 36097 ft 479 kts 104°
2026-05-06 18:42 18.30580 -89.93176 35347 ft 472 kts 104°
2026-05-06 18:43 18.29792 -89.89884 34647 ft 462 kts 104°
2026-05-06 18:43 18.29008 -89.86629 33831 ft 453 kts 104°
2026-05-06 18:43 18.28243 -89.83480 33027 ft 444 kts 104°
2026-05-06 18:43 18.27487 -89.80334 32282 ft 442 kts 104°
2026-05-06 18:44 18.26732 -89.77201 31594 ft 436 kts 104°
2026-05-06 18:44 18.25996 -89.74156 30895 ft 427 kts 104°
2026-05-06 18:44 18.25271 -89.71166 30209 ft 418 kts 104°
2026-05-06 18:44 18.24558 -89.68232 29542 ft 415 kts 104°
2026-05-06 18:45 18.23845 -89.65295 28919 ft 412 kts 104°
2026-05-06 18:45 18.23376 -89.63361 28511 ft 411 kts 104°
2026-05-06 18:45 18.22674 -89.60475 27901 ft 410 kts 104°
2026-05-06 18:45 18.22205 -89.58540 27498 ft 407 kts 104°
2026-05-06 18:46 18.21283 -89.54742 26687 ft 398 kts 104°
2026-05-06 18:46 18.20606 -89.51957 26069 ft 389 kts 104°
2026-05-06 18:46 18.19942 -89.49225 25463 ft 385 kts 104°
2026-05-06 18:46 18.19285 -89.46523 24912 ft 383 kts 104°
2026-05-06 18:47 18.18622 -89.43793 24370 ft 383 kts 104°
2026-05-06 18:47 18.17962 -89.41080 23837 ft 383 kts 104°
2026-05-06 18:47 18.17306 -89.38389 23298 ft 381 kts 103°
2026-05-06 18:47 18.16649 -89.35704 22759 ft 376 kts 103°
2026-05-06 18:48 18.16002 -89.33057 22217 ft 368 kts 104°
2026-05-06 18:48 18.15379 -89.30514 21701 ft 359 kts 103°
2026-05-06 18:48 18.14755 -89.27968 21205 ft 358 kts 103°
2026-05-06 18:48 18.14129 -89.25419 20747 ft 358 kts 103°
2026-05-06 18:49 18.13513 -89.22912 20303 ft 357 kts 103°
2026-05-06 18:49 18.12892 -89.20379 19851 ft 355 kts 103°
2026-05-06 18:49 18.12277 -89.17869 19398 ft 350 kts 103°
2026-05-06 18:49 18.11684 -89.15442 18956 ft 342 kts 103°
2026-05-06 18:50 18.11098 -89.13044 18499 ft 336 kts 103°
2026-05-06 18:50 18.10515 -89.10680 18083 ft 336 kts 103°
2026-05-06 18:50 18.09930 -89.08302 17702 ft 337 kts 103°
2026-05-06 18:50 18.09343 -89.05917 17317 ft 337 kts 102°
2026-05-06 18:51 18.08750 -89.03528 16942 ft 335 kts 102°
2026-05-06 18:51 18.08175 -89.01173 16590 ft 333 kts 102°
2026-05-06 18:51 18.07594 -88.98807 16251 ft 330 kts 102°
2026-05-06 18:51 18.07030 -88.96506 15955 ft 327 kts 102°
2026-05-06 18:52 18.06457 -88.94172 15707 ft 326 kts 102°
2026-05-06 18:52 18.05895 -88.91894 15499 ft 326 kts 103°
2026-05-06 18:52 18.05317 -88.89560 15275 ft 326 kts 102°
2026-05-06 18:52 18.04750 -88.87256 15070 ft 326 kts 102°
2026-05-06 18:53 18.04180 -88.84939 14872 ft 326 kts 103°
2026-05-06 18:53 18.03621 -88.82655 14675 ft 326 kts 102°
2026-05-06 18:53 18.03051 -88.80331 14483 ft 325 kts 102°
2026-05-06 18:53 18.02357 -88.78085 14217 ft 328 kts 114°
2026-05-06 18:54 18.01073 -88.76085 13813 ft 335 kts 130°
2026-05-06 18:54 17.99288 -88.74509 13362 ft 335 kts 141°
2026-05-06 18:54 17.97428 -88.73090 12838 ft 328 kts 140°
2026-05-06 18:54 17.95631 -88.71659 12359 ft 320 kts 140°
2026-05-06 18:55 17.93866 -88.70266 11943 ft 318 kts 140°
2026-05-06 18:55 17.92094 -88.68864 11479 ft 317 kts 140°
2026-05-06 18:55 17.90356 -88.67488 11003 ft 312 kts 140°
2026-05-06 18:55 17.88641 -88.66130 10539 ft 304 kts 140°
2026-05-06 18:56 17.86986 -88.64822 10265 ft 289 kts 141°
2026-05-06 18:56 17.85415 -88.63583 10006 ft 277 kts 141°
2026-05-06 18:56 17.83880 -88.62372 9520 ft 275 kts 141°
2026-05-06 18:56 17.82359 -88.61171 9054 ft 274 kts 141°
2026-05-06 18:57 17.80826 -88.59964 8577 ft 271 kts 141°
2026-05-06 18:57 17.79336 -88.58790 8100 ft 269 kts 141°
2026-05-06 18:57 17.77842 -88.57612 7631 ft 266 kts 141°
2026-05-06 18:57 17.76377 -88.56455 7131 ft 264 kts 140°
2026-05-06 18:58 17.74922 -88.55325 6773 ft 256 kts 146°
2026-05-06 18:58 17.73260 -88.54632 6503 ft 260 kts 168°
2026-05-06 18:58 17.71426 -88.54527 6318 ft 268 kts 177°
2026-05-06 18:58 17.69553 -88.54511 6115 ft 270 kts 175°
2026-05-06 18:59 17.67670 -88.54459 5836 ft 264 kts 175°
2026-05-06 18:59 17.65866 -88.54404 5598 ft 251 kts 174°
2026-05-06 18:59 17.64162 -88.54354 5375 ft 239 kts 174°
2026-05-06 18:59 17.62551 -88.54305 5220 ft 226 kts 174°
2026-05-06 19:00 17.60986 -88.54256 5167 ft 222 kts 174°
2026-05-06 19:00 17.59460 -88.54208 5071 ft 214 kts 174°
2026-05-06 19:00 17.57995 -88.54160 4893 ft 208 kts 173°
2026-05-06 19:00 17.57051 -88.54095 4811 ft 198 kts 166°
2026-05-06 19:01 17.55287 -88.53665 4550 ft 195 kts 162°
2026-05-06 19:01 17.53950 -88.53345 4334 ft 195 kts 162°
2026-05-06 19:01 17.52625 -88.53024 4154 ft 192 kts 162°
2026-05-06 19:01 17.51328 -88.52710 3981 ft 190 kts 161°
2026-05-06 19:02 17.50145 -88.52136 3746 ft 185 kts 135°
2026-05-06 19:02 17.49431 -88.51066 3544 ft 180 kts 106°
2026-05-06 19:02 17.49358 -88.49779 3339 ft 180 kts 77°
2026-05-06 19:02 17.49821 -88.48563 3138 ft 180 kts 70°
2026-05-06 19:03 17.50205 -88.47320 2911 ft 179 kts 77°
2026-05-06 19:03 17.50503 -88.46061 2678 ft 176 kts 78°
2026-05-06 19:03 17.50787 -88.44849 2410 ft 169 kts 78°
2026-05-06 19:03 17.51052 -88.43681 2130 ft 161 kts 78°
2026-05-06 19:04 17.51294 -88.42586 1997 ft 147 kts 78°
2026-05-06 19:04 17.51523 -88.41549 1869 ft 147 kts 78°
2026-05-06 19:04 17.51755 -88.40513 1719 ft 144 kts 78°
2026-05-06 19:04 17.51984 -88.39494 1515 ft 144 kts 78°
2026-05-06 19:05 17.52211 -88.38477 1308 ft 146 kts 79°
2026-05-06 19:05 17.52445 -88.37443 1132 ft 147 kts 79°
2026-05-06 19:05 17.52673 -88.36399 954 ft 146 kts 78°
2026-05-06 19:05 17.52921 -88.35361 776 ft 148 kts 79°
2026-05-06 19:06 17.53166 -88.34311 561 ft 150 kts 79°
2026-05-06 19:06 17.53390 -88.33237 342 ft 151 kts 81°
2026-05-06 19:06 17.53617 -88.32172 117 ft 152 kts 81°
2026-05-06 19:06 17.53849 -88.31100 29 ft 142 kts 79°
2026-05-06 19:07 17.54027 -88.30260 27 ft 96 kts 80°
2026-05-06 19:07 17.54116 -88.29855 29 ft 74 kts 78°
2026-05-06 19:07 17.54211 -88.29424 32 ft 10 kts 78°
2026-05-06 19:07 17.54225 -88.29363 33 ft 8 kts 75°
2026-05-06 19:08 17.54238 -88.29312 33 ft 7 kts 75°
2026-05-06 19:08 17.54254 -88.29249 34 ft 11 kts 76°
2026-05-06 19:08 17.54251 -88.29171 35 ft 8 kts 114°
2026-05-06 19:08 17.54265 -88.29127 35 ft 7 kts 347°
2026-05-06 19:09 17.54263 -88.29192 34 ft 13 kts 257°
2026-05-06 19:09 17.54237 -88.29311 33 ft 20 kts 257°
2026-05-06 19:09 17.54196 -88.29478 31 ft 26 kts 254°
2026-05-06 19:09 17.54152 -88.29691 29 ft 33 kts 258°
2026-05-06 19:10 17.54084 -88.29944 29 ft 38 kts 252°
2026-05-06 19:10 17.54040 -88.30204 27 ft 37 kts 262°
2026-05-06 19:10 17.53990 -88.30461 26 ft 37 kts 256°
2026-05-06 19:10 17.53931 -88.30727 27 ft 32 kts 258°
2026-05-06 19:11 17.53896 -88.30854 29 ft 12 kts 227°
2026-05-06 19:11 17.53795 -88.30862 29 ft 16 kts 173°
2026-05-06 19:11 17.53706 -88.30856 29 ft 8 kts 166°
2026-05-06 19:11 17.53690 -88.30851 29 ft 0 kts 166°